[[{"header":{"parameterUnit":"m.s-1","parameterCategory":1,"la1":30.2991,"la2":30.254,"lo1":-89.0895,"lo2":-89.0444,"dy":0.0017,"dx":0.0017,"nx":28,"ny":28,"refTime":"2025-09-06T21:00:00:Z","depth":0,"parameterNumber":2,"parameterNumberName":"U-component_of_WINDS"},"data":[0,0,0,0,0,0,0,0,0,0,0,0,0,0,0,0,0,0,0,0,0,0,0,0,0,0,0,0,0,0,0,0,0,0,0,0,0,0,0,0,0,0,0,0,0,0,0,0,0,0,0,0,0,0,0,0,0,0,0.8649,0.8647,0,0.8465,0.8463,0.8461,0.8324,0.8323,0.8322,0.8321,0.8128,0.8124,0.812,0,0,0,0,0,0,0,0,0,0,0,0,0,0.8877,0.8873,0.8649,0.8646,0.8644,0.8465,0.8463,0.846,0.8325,0.8323,0.8322,0.832,0.813,0.8125,0.812,0,0,0,0,0,0,0,0,0,0,0,0,0,0.8744,0.8872,0.8649,0.8555,0.8545,0.8466,0.8463,0.846,0.8325,0.8323,0.8321,0.832,0.8131,0.8125,0.8119,0.8118,0,0,0.8101,0.8098,0,0,0,0,0,0,0,0,0.8752,0.8736,0.8571,0.8561,0.855,0.8416,0.8472,0.8345,0.8325,0.8408,0.8321,0.8319,0.8225,0.8211,0.818,0.8109,0.81,0.81,0.8097,0.8094,0.8092,0,0,0,0,0,0,0,0.8761,0.8743,0.8576,0.8569,0.8556,0.852,0.8499,0.8448,0.8329,0.8401,0.8391,0.8371,0.8219,0.8187,0.8175,0.8098,0.8101,0.8095,0.8091,0.8089,0.8014,0.8016,0,0,0,0,0,0,0.8786,0.8751,0.8582,0.857,0.8649,0.8518,0.8494,0.8461,0.8329,0.8307,0.8373,0.8365,0.8198,0.8182,0.8168,0.8156,0.8094,0.8088,0.8085,0.8012,0.8014,0.8016,0,0,0,0,0,0,0.8791,0.8772,0.8589,0.8658,0.8632,0.8516,0.8479,0.8458,0.8425,0.8308,0.8285,0.8362,0.8196,0.8176,0.8131,0.8148,0.8086,0.808,0.8011,0.8013,0.8015,0.8134,0,0,0,0,0,0,0.8798,0.8775,0.8774,0.8659,0.8629,0.8557,0.848,0.8456,0.8416,0.8405,0.8292,0.8271,0.8193,0.8141,0.8125,0.8138,0.8076,0.8009,0.8012,0.8015,0.8128,0.814,0.8151,0,0,0,0,0,0.8807,0.8814,0.8775,0.8755,0.8626,0.8559,0.8541,0.8452,0.8418,0.8415,0.834,0.8275,0.8149,0.8138,0.8119,0.813,0.8007,0.8011,0.8014,0.8123,0.8138,0.8151,0,0,0,0,0,0,0.8931,0.8797,0.8752,0.8722,0.8653,0.8536,0.853,0.8471,0.8409,0.84,0.8291,0.8267,0.8233,0.8177,0.8167,0.8121,0.807,0.807,0.8159,0.8172,0.8183,0.8197,0.8071,0,0,0,0,0,0.8956,0.8914,0.8798,0.8783,0.8751,0.8647,0.8614,0.8552,0.8475,0.8445,0.8366,0.8292,0.8236,0.8201,0.8143,0.812,0.8093,0.8118,0.813,0.814,0.8141,0.8123,0.8133,0.8028,0.8028,0.8028,0,0,0.9005,0.8926,0.8906,0.8806,0.8745,0.8703,0.8623,0.8582,0.8548,0.8438,0.8391,0.8331,0.8241,0.8208,0.8189,0.816,0.8164,0.8144,0.8153,0.8148,0.8128,0.8138,0.8147,0.8031,0.803,0.803,0,0,0.9072,0.901,0.899,0.8931,0.8841,0.8772,0.8767,0.8659,0.8615,0.8567,0.8483,0.8441,0.8347,0.8286,0.8244,0.829,0.8228,0.8274,0.8332,0.8317,0.8325,0.8332,0.8347,0.8354,0.8276,0.8276,0.8276,0,0.9144,0.9079,0.8987,0.8951,0.8908,0.8809,0.8787,0.8733,0.8628,0.8601,0.857,0.845,0.8383,0.8333,0.8345,0.8314,0.8304,0.8286,0.8332,0.8338,0.8343,0.8356,0.8362,0.8282,0.8281,0.8281,0.828,0,0.9171,0.9127,0.9122,0.9025,0.8982,0.8953,0.8855,0.8823,0.8765,0.8699,0.865,0.8567,0.849,0.8473,0.8416,0.8415,0.84,0.8353,0.8298,0.836,0.8371,0.8375,0.8291,0.8289,0.8287,0.8285,0,0,0.931,0.9164,0.9163,0.9118,0.9011,0.8974,0.8941,0.8867,0.8841,0.8772,0.874,0.8663,0.8619,0.857,0.8505,0.8492,0.8533,0.8445,0.8441,0.8463,0.8526,0.8562,0.8569,0.8492,0.8492,0.8493,0.8533,0,0.936,0.9296,0.9213,0.9176,0.9134,0.9039,0.9009,0.894,0.8878,0.8831,0.8761,0.8708,0.8654,0.8624,0.8607,0.8532,0.8544,0.8528,0.8459,0.8458,0.8483,0.8575,0.8612,0.8655,0.8537,0.8538,0.8538,0,0.9409,0.9347,0.9308,0.9205,0.9184,0.9159,0.9085,0.9042,0.8961,0.8917,0.8864,0.8794,0.8752,0.8705,0.8646,0.8637,0.8604,0.8563,0.8562,0.8551,0.8501,0.8565,0.8666,0.8672,0.8544,0.8543,0.8543,0,0.9513,0.942,0.9384,0.9348,0.9228,0.9213,0.9161,0.9079,0.904,0.8975,0.8948,0.8879,0.884,0.8788,0.87,0.8674,0.865,0.8596,0.861,0.8612,0.8607,0.8609,0.8704,0.8589,0.8589,0.8589,0.8589,0,0.9577,0.9556,0.9429,0.9407,0.938,0.9284,0.926,0.9199,0.9127,0.909,0.9004,0.8971,0.8858,0.8812,0.8743,0.8703,0.8687,0.8649,0.863,0.8655,0.866,0.8631,0.8625,0.8591,0.859,0.859,0.859,0,0.9688,0.9603,0.9557,0.9448,0.942,0.9405,0.931,0.9284,0.9217,0.9172,0.9155,0.905,0.899,0.8899,0.8812,0.8765,0.8737,0.8708,0.8765,0.8754,0.8773,0.8772,0.8851,0.8856,0.8741,0.8742,0.8743,0,0.9734,0.9715,0.9605,0.9575,0.9528,0.948,0.9441,0.9346,0.9308,0.9215,0.92,0.9134,0.9076,0.8986,0.89,0.8833,0.8801,0.8833,0.879,0.8816,0.88,0.8802,0.8799,0.8843,0.8845,0.8846,0.8847,0,0.9823,0.9782,0.973,0.9663,0.9618,0.956,0.9498,0.9478,0.9368,0.933,0.9269,0.9225,0.9137,0.9072,0.8994,0.8938,0.8874,0.8862,0.8861,0.8886,0.892,0.8901,0.8791,0.886,0.8859,0.8858,0.8857,0.8857,0.9901,0.9881,0.98,0.9745,0.9688,0.9632,0.9602,0.9533,0.9481,0.9403,0.935,0.9292,0.9211,0.9099,0.9048,0.9001,0.8973,0.8972,0.8972,0.8973,0.8982,0.8929,0.8986,0.8985,0.8985,0.8985,0.8984,0,0.9985,0.993,0.988,0.9796,0.9752,0.9698,0.9626,0.9592,0.9543,0.9474,0.942,0.935,0.9287,0.9198,0.9128,0.9107,0.9076,0.9092,0.9091,0.908,0.9011,0.9018,0.9118,0.9118,0.9118,0.9118,0.9118,0.9118,1.0024,0.9986,0.9936,0.9869,0.9812,0.9757,0.972,0.9668,0.9612,0.9539,0.9487,0.943,0.9352,0.9276,0.9215,0.919,0.9168,0.9193,0.9159,0.9097,0.9084,0.9073,0.9079,0.919,0.919,0.9231,0.9232,0.9232]},{"header":{"parameterUnit":"m.s-1","parameterCategory":1,"la1":30.2991,"la2":30.254,"lo1":-89.0895,"lo2":-89.0444,"dy":0.0017,"dx":0.0017,"nx":28,"ny":28,"refTime":"2025-09-06T21:00:00:Z","depth":0,"parameterNumber":3,"parameterNumberName":"V-component_of_WINDS"},"data":[0,0,0,0,0,0,0,0,0,0,0,0,0,0,0,0,0,0,0,0,0,0,0,0,0,0,0,0,0,0,0,0,0,0,0,0,0,0,0,0,0,0,0,0,0,0,0,0,0,0,0,0,0,0,0,0,0,0,-3.2573,-3.2572,0,-3.2516,-3.2516,-3.2515,-3.2455,-3.2455,-3.2454,-3.2453,-3.2393,-3.2392,-3.2391,0,0,0,0,0,0,0,0,0,0,0,0,0,-3.2629,-3.2628,-3.2573,-3.2572,-3.2571,-3.2516,-3.2515,-3.2515,-3.2456,-3.2455,-3.2454,-3.2453,-3.2393,-3.2392,-3.2391,0,0,0,0,0,0,0,0,0,0,0,0,0,-3.2592,-3.2628,-3.2573,-3.2535,-3.2531,-3.2516,-3.2515,-3.2514,-3.2456,-3.2455,-3.2453,-3.2452,-3.2393,-3.2392,-3.2391,-3.2408,0,0,-3.2387,-3.2387,0,0,0,0,0,0,0,0,-3.2594,-3.259,-3.2542,-3.2538,-3.2533,-3.2492,-3.2513,-3.2479,-3.2456,-3.2484,-3.2453,-3.2452,-3.2427,-3.2423,-3.2415,-3.2405,-3.2402,-3.2387,-3.2386,-3.2386,-3.2385,0,0,0,0,0,0,0,-3.2596,-3.2592,-3.255,-3.2541,-3.2536,-3.2521,-3.2514,-3.2506,-3.2463,-3.2482,-3.2477,-3.2472,-3.2424,-3.2416,-3.2413,-3.2402,-3.2387,-3.2386,-3.2385,-3.2385,-3.2405,-3.2406,0,0,0,0,0,0,-3.2605,-3.2594,-3.2552,-3.2549,-3.2561,-3.2521,-3.2513,-3.2506,-3.2463,-3.2455,-3.2473,-3.2469,-3.2419,-3.2414,-3.241,-3.2428,-3.2386,-3.2385,-3.2384,-3.2404,-3.2405,-3.2407,0,0,0,0,0,0,-3.2606,-3.2602,-3.2554,-3.257,-3.2563,-3.2521,-3.2514,-3.2506,-3.2497,-3.2456,-3.2448,-3.2472,-3.2417,-3.2412,-3.241,-3.2425,-3.2384,-3.2383,-3.2402,-3.2404,-3.2406,-3.2464,0,0,0,0,0,0,-3.2608,-3.2603,-3.2609,-3.2571,-3.2562,-3.2555,-3.2515,-3.2506,-3.2496,-3.249,-3.2454,-3.2446,-3.2416,-3.2412,-3.2408,-3.2423,-3.2382,-3.2401,-3.2403,-3.2405,-3.2461,-3.2468,-3.2474,0,0,0,0,0,-3.261,-3.2626,-3.2609,-3.2604,-3.2569,-3.2556,-3.2551,-3.2517,-3.2497,-3.2503,-3.2477,-3.2447,-3.2424,-3.2412,-3.2408,-3.2422,-3.2399,-3.2402,-3.2405,-3.2458,-3.2467,-3.2474,0,0,0,0,0,0,-3.2666,-3.2621,-3.2601,-3.2605,-3.2585,-3.2546,-3.2552,-3.2527,-3.2511,-3.2506,-3.2464,-3.2456,-3.2459,-3.244,-3.2427,-3.2437,-3.2408,-3.241,-3.2449,-3.2457,-3.2464,-3.2468,-3.2381,0,0,0,0,0,-3.2679,-3.2672,-3.2633,-3.264,-3.2631,-3.2594,-3.2587,-3.2562,-3.2539,-3.253,-3.2503,-3.2482,-3.2469,-3.2462,-3.2449,-3.2458,-3.245,-3.2466,-3.2473,-3.2478,-3.2481,-3.2486,-3.2493,-3.2416,-3.2416,-3.2416,0,0,-3.2705,-3.268,-3.2678,-3.2651,-3.2632,-3.2627,-3.2587,-3.2582,-3.2577,-3.2529,-3.2525,-3.2505,-3.2478,-3.2482,-3.2482,-3.2467,-3.25,-3.2482,-3.2487,-3.2486,-3.249,-3.2497,-3.2503,-3.2418,-3.2418,-3.2418,0,0,-3.275,-3.273,-3.2735,-3.2717,-3.269,-3.2666,-3.2667,-3.2632,-3.2617,-3.2613,-3.2578,-3.2571,-3.2551,-3.2534,-3.2522,-3.2563,-3.2536,-3.256,-3.2595,-3.26,-3.2607,-3.2612,-3.2627,-3.2633,-3.2563,-3.2563,-3.2563,0,-3.2786,-3.2776,-3.274,-3.2738,-3.2728,-3.2685,-3.269,-3.2675,-3.2645,-3.2639,-3.2621,-3.2597,-3.2575,-3.2575,-3.2586,-3.2578,-3.2578,-3.2564,-3.2609,-3.2613,-3.2618,-3.2632,-3.2638,-3.2566,-3.2566,-3.2565,-3.2565,0,-3.2822,-3.2816,-3.2823,-3.2796,-3.2787,-3.2788,-3.2753,-3.2747,-3.2724,-3.2702,-3.2699,-3.2672,-3.2654,-3.2652,-3.2628,-3.2649,-3.264,-3.2617,-3.2586,-3.2629,-3.2642,-3.2647,-3.257,-3.2569,-3.2568,-3.2568,0,0,-3.2899,-3.2854,-3.2857,-3.2846,-3.2813,-3.2808,-3.2808,-3.2791,-3.2787,-3.2768,-3.2768,-3.2753,-3.2731,-3.2719,-3.2693,-3.2698,-3.2734,-3.2674,-3.2672,-3.2687,-3.2756,-3.2775,-3.2782,-3.2716,-3.2717,-3.2717,-3.2759,0,-3.2939,-3.2937,-3.2905,-3.2912,-3.2907,-3.2867,-3.2867,-3.2848,-3.2827,-3.2819,-3.2796,-3.2787,-3.2758,-3.2751,-3.2754,-3.2729,-3.2747,-3.2725,-3.2715,-3.2715,-3.2723,-3.2788,-3.2807,-3.2847,-3.2764,-3.2764,-3.2765,0,-3.2984,-3.297,-3.2977,-3.2946,-3.2943,-3.2943,-3.2926,-3.2919,-3.2897,-3.2881,-3.2868,-3.284,-3.2838,-3.281,-3.2808,-3.2794,-3.2788,-3.2775,-3.2776,-3.2773,-3.2743,-3.2788,-3.2859,-3.2866,-3.2772,-3.2772,-3.2771,0,-3.3041,-3.3023,-3.3025,-3.3016,-3.298,-3.2982,-3.2967,-3.2943,-3.2936,-3.2921,-3.2915,-3.29,-3.2891,-3.288,-3.2849,-3.2831,-3.285,-3.2819,-3.2838,-3.2839,-3.2843,-3.2843,-3.2915,-3.2839,-3.2839,-3.2839,-3.2839,0,-3.3089,-3.3095,-3.305,-3.3052,-3.3058,-3.3022,-3.3029,-3.301,-3.299,-3.2987,-3.2951,-3.2949,-3.2908,-3.2902,-3.2877,-3.288,-3.2876,-3.2863,-3.2857,-3.2867,-3.2868,-3.2862,-3.2859,-3.284,-3.284,-3.284,-3.284,0,-3.3153,-3.3123,-3.3123,-3.309,-3.3082,-3.3088,-3.306,-3.306,-3.3037,-3.3035,-3.3032,-3.2997,-3.2987,-3.2955,-3.2938,-3.2921,-3.2932,-3.2919,-3.294,-3.2935,-3.2956,-3.2955,-3.3026,-3.3034,-3.2953,-3.2954,-3.2955,0,-3.3185,-3.3189,-3.3157,-3.3154,-3.3141,-3.3135,-3.3127,-3.3093,-3.3086,-3.3062,-3.3065,-3.3054,-3.3042,-3.303,-3.3003,-3.2989,-3.2976,-3.3002,-3.2974,-3.2984,-3.2978,-3.2978,-3.2979,-3.3008,-3.3009,-3.301,-3.3011,0,-3.3247,-3.3233,-3.3223,-3.321,-3.3202,-3.319,-3.3175,-3.3174,-3.3135,-3.313,-3.3121,-3.3112,-3.3096,-3.3085,-3.3068,-3.3052,-3.3026,-3.302,-3.3024,-3.3034,-3.3047,-3.3041,-3.2957,-3.3019,-3.3018,-3.3017,-3.3017,-3.3017,-3.3296,-3.3299,-3.3277,-3.3269,-3.3254,-3.3242,-3.3241,-3.3219,-3.3211,-3.3196,-3.3176,-3.317,-3.3148,-3.3123,-3.311,-3.3105,-3.309,-3.3095,-3.3096,-3.3098,-3.3104,-3.3048,-3.3101,-3.3101,-3.3101,-3.31,-3.31,0,-3.3356,-3.3341,-3.3334,-3.3315,-3.3309,-3.3286,-3.3269,-3.3265,-3.326,-3.3243,-3.3233,-3.3224,-3.3214,-3.3187,-3.3174,-3.3175,-3.3163,-3.3173,-3.3172,-3.317,-3.3117,-3.3115,-3.3183,-3.3183,-3.3183,-3.3183,-3.3183,-3.3183,-3.3387,-3.339,-3.3374,-3.337,-3.3354,-3.3348,-3.3341,-3.333,-3.3316,-3.3307,-3.3299,-3.3282,-3.3261,-3.3247,-3.3237,-3.323,-3.3227,-3.3241,-3.323,-3.3181,-3.3173,-3.3166,-3.3164,-3.3241,-3.3241,-3.3283,-3.3283,-3.3284]}]]